Hourly Data Report for September 03, 2006

TORONTO CITY
ONTARIO

43°40'00.000" N
79°24'00.000" W
112.50 m
6158355
71508
XTO

Download Data

Hourly Data (September 2006)
Hourly Data Report for September 3, 2006
TIME
LST
Temp Definition
°C
Dew Point Definition
°C
Rel Hum Definition
%
Precip. Amount Definition
mm

Wind Dir Definition
10's deg

Wind Spd Definition
km/h
Visibility Definition
km
Stn Press Definition
kPa
Hmdx Definition


Wind Chill Definition


Weather Definition


00:00 13.8 13.0 95   LegendMM LegendMM   100.33     LegendNANA
01:00 13.8 13.1 96   LegendMM LegendMM   100.27     LegendNANA
02:00 13.0 12.5 97   LegendMM LegendMM   100.22     LegendNANA
03:00 12.9 12.6 98   LegendMM LegendMM   100.19     LegendNANA
04:00 13.1 12.8 98   LegendMM LegendMM   100.19     LegendNANA
05:00 13.1 12.8 98   LegendMM LegendMM   100.20     LegendNANA
06:00 13.0 12.6 97   LegendMM LegendMM   100.19     LegendNANA
07:00 13.3 12.8 97   LegendMM LegendMM   100.23     LegendNANA
08:00 13.7 13.1 96   LegendMM LegendMM   100.25     LegendNANA
09:00 14.0 13.3 96   LegendMM LegendMM   100.28     LegendNANA
10:00 14.5 13.2 92   LegendMM LegendMM   100.30     LegendNANA
11:00 15.1 13.8 92   LegendMM LegendMM   100.30     LegendNANA
12:00 16.1 13.5 85   LegendMM LegendMM   100.29     LegendNANA
13:00 17.3 14.4 83   LegendMM LegendMM   100.27     LegendNANA
14:00 17.7 14.2 80   LegendMM LegendMM   100.26     LegendNANA
15:00 17.4 14.7 84   LegendMM LegendMM   100.23     LegendNANA
16:00 17.3 15.1 87   LegendMM LegendMM   100.21     LegendNANA
17:00 17.6 14.5 82   LegendMM LegendMM   100.20     LegendNANA
18:00 17.1 15.3 89   LegendMM LegendMM   100.20     LegendNANA
19:00 15.7 14.5 93   LegendMM LegendMM   100.21     LegendNANA
20:00 15.5 14.2 92   LegendMM LegendMM   100.27     LegendNANA
21:00 15.6 14.1 91   LegendMM LegendMM   100.30     LegendNANA
22:00 15.6 13.9 90   LegendMM LegendMM   100.30     LegendNANA
23:00 15.7 13.4 86   LegendMM LegendMM   100.31     LegendNANA

Notes on Data Quality.

Legend

  • E = Estimated
  • M = Missing
  • NA = Not Available*
  • [empty] = Indicates an unobserved value
Date modified: